Weather Roundup
Issued by NWS

Home | Current Version | Previous Version | Text Only | Print | Product List | Glossary On
Versions: 1 2 3 4 5 6 7 8 9 10 11 12 13 14 15 16 17 18 19 20 21 22 23 24 25 26 27 28 29 30 31 32 33 34 35 36 37 38 39 40 41 42 43 44 45 46 47 48 49 50
102
NZUS93 KARX 281110
HRRWXR

CURRENT HOURLY OBSERVATIONS ACROSS
MUCH OF THE UPPER MISSISSIPPI VALLEY
NATIONAL WEATHER SERVICE LA CROSSE WI
600 AM CDT SAT MAY 28 2016


...SOUTHEAST MINNESOTA...


CITY           SKY/WX    TMP DP  RH WIND       PRES   REMARKS
ROCHESTER      CLOUDY    63  63 100 NE6       29.75R FOG
ROCHESTER/MAYO CLOUDY    62  62 100 CALM      29.75R
WINONA         LGT RAIN  66  64  94 CALM      29.73S
AUSTIN         DRIZZLE   63  61  94 CALM      29.74R
ALBERT LEA     CLOUDY    63  63 100 CALM      29.74R FOG
DODGE CENTER   CLOUDY    61  61 100 N6        29.73F FOG
PRESTON        FOG       62  60  96 CALM      29.75R VSB 1/4
OWATONNA       CLOUDY    63  61  94 NE7       29.74F FOG
FARIBAULT      CLOUDY    61  61 100 N5        29.74F
$$

...ELSEWHERE IN MINNESOTA...


CITY           SKY/WX    TMP DP  RH WIND       PRES   REMARKS
MINNEAPOLIS    CLOUDY    62  59  90 N5        29.76R
INTNL FALLS    LGT RAIN  57  54  89 NE6       29.85R
DULUTH         DRZL/FOG  47  46  97 SE3       29.79S VSB 3/4
RED WING       LGT RAIN  63  61  94 E5        29.74S
REDWOOD FALLS  CLOUDY    60  57  89 NE7       29.75S FOG
MANKATO        CLOUDY    63  57  82 NE10      29.74F
WORTHINGTON    RAIN      62  61  96 CALM      29.75R FOG
FAIRMONT       CLOUDY    64  61  88 E5        29.74R
$$

...SOUTHWEST WISCONSIN...


CITY           SKY/WX    TMP DP  RH WIND       PRES   REMARKS
LA CROSSE      HVY RAIN  67  65  93 VRB3      29.73R VSB 1
PRAIRIE DU CHI DRIZZLE   65  64  95 CALM      29.73R
BOSCOBEL       LGT RAIN  67  65  93 SW6       29.73R FOG
LONE ROCK      CLOUDY    69  66  90 SE7       29.74R
PLATTEVILLE    CLOUDY    67  66  96 S18       29.75R
FORT MC COY    RAIN      64  64 100 CALM      29.74S
CAMP DOUGLAS   CLOUDY    68 N/A N/A E7        29.73F
MAUSTON-NEW LI CLOUDY    68  67  97 E3        29.73F
VIROQUA        CLOUDY    65  65 100 CALM      29.73F
WIS DELLS      CLOUDY    67  64  88 S13       29.76R
$$

...ELSEWHERE IN WISCONSIN...


CITY           SKY/WX    TMP DP  RH WIND       PRES   REMARKS
MILWAUKEE      CLOUDY    67  63  87 S13       29.84S
MADISON        CLOUDY    69  66  90 S16       29.77R
GREEN BAY      CLOUDY    68  65  90 S3        29.81S
EAU CLAIRE     LGT RAIN  61  61 100 SE13      29.74F FOG
BLACK RVR FLS  RAIN      65  65 100 CALM      29.74R
MEDFORD        CLOUDY    64  64 100 CALM      29.77S FOG
WAUSAU         CLOUDY    69  66  90 SE7       29.76S FOG
WIS RAPIDS     LGT RAIN  68  65  90 S7        29.77S
MARSHFIELD     CLOUDY    68  65  90 E3        29.75F FOG
RICE LAKE      CLOUDY    59  58  95 CALM      29.78S FOG
$$

...NORTHEAST IOWA...


CITY           SKY/WX    TMP DP  RH WIND       PRES   REMARKS
WATERLOO       MOCLDY    62  60  93 S3        29.73S
DUBUQUE        CLOUDY    63  63 100 SW10      29.76R FOG
DECORAH        FOG       66  66 100 CALM      29.73R VSB<1/4
MASON CITY     CLOUDY    61  61 100 SW3       29.75R FOG
CHARLES CITY   CLOUDY    64  64 100 CALM      29.74S FOG
OELWEIN        CLOUDY    64  64 100 S5        29.74F
$$

...ELSEWHERE IN IOWA...


CITY           SKY/WX    TMP DP  RH WIND       PRES   REMARKS
DES MOINES     CLOUDY    63  59  87 SE3       29.73F
IOWA CITY      CLEAR     61  60  97 SE3       29.78R FOG
FORT DODGE     CLOUDY    63  59  88 CALM      29.75S
MARSHALLTOWN   CLOUDY    61  60  97 SW6       29.75R
CEDAR RAPIDS   MOCLDY    61  61 100 S5        29.76R FOG
$$

...NORTHERN ILLINOIS...


CITY           SKY/WX    TMP DP  RH WIND       PRES   REMARKS
CHICAGO-OHARE  CLOUDY    70  64  81 S17       29.85S
CHICAGO-MIDWAY CLOUDY    72  63  73 S15G24    29.86S
MOLINE         MOCLDY    69  64  84 SW7       29.79R
ROCKFORD       CLOUDY    69  65  86 S15       29.84R
PEORIA         CLOUDY    70  65  84 S17       29.85R
$$

NOTE: "FAIR" INDICATES FEW OR NO CLOUDS BELOW 12,000 FEET WITH NO
SIGNIFICANT WEATHER AND/OR OBSTRUCTIONS TO VISIBILITY. WIND
SPEEDS ARE IN MILES-PER-HOUR.




USA.gov is the U.S. government's official web portal to all federal, state and local government web resources and services.